Location: Downe
(51.3167°N, 0.0500°E)
Time: 04:16:27
(UTC+00:00)

FENGYUN 3A - Pass Details

Date: 17 November 2019
Orbit: 823 x 836 km, 98.4° (Epoch: 11 December)

Event Time Altitude Azimuth Distance (km) Brightness Sun altitude
Rises 05:27:14 0° 16° (NNE) 3,396 6.9 -17.3°
Reaches altitude 10° 05:29:38 10° 19° (NNE) 2,456 6.2 -17.0°
Maximum altitude 05:35:04 70° 102° (ESE) 888 4.0 -16.1°
Drops below altitude 10° 05:40:26 10° 187° (S) 2,430 6.1 -15.3°
Sets 05:42:48 0° 189° (S) 3,357 6.9 -14.9°
